Track STARLINK-4756 now! 10-day predictions STARLINK-4756 is classified as:
1 53826U 22114J 24325.88429703 -.00002424 00000-0 -13432-3 0 9991 2 53826 53.2173 271.0550 0001942 97.9667 262.1545 15.08811572120766